DW8305 Weather Reports


Display with metric or nautical units.
time (UTC)temp
F
wind
direction
speed
MPH
gust
MPH
rain 1hr
in
rain 24hr
in
rain mn
in
humidity
%
barometer
mb
20221206111817 39 0.0 2.0 0.00 0.05 0.05 99 1018.1
20221206110817 39 293 4.0 6.0 0.00 0.06 0.05 99 1018.1
20221206105817 39 293 2.0 5.0 0.00 0.06 0.05 99 1018.2
20221206104817 39 0.0 1.0 0.00 0.06 0.05 99 1018.2
20221206103817 39 293 2.0 6.0 0.00 0.06 0.05 99 1018.2
20221206102817 39 315 2.0 3.0 0.00 0.06 0.05 99 1018.3
20221206101817 39 315 3.0 5.0 0.00 0.06 0.05 99 1018.4
20221206100817 39 293 2.0 3.0 0.00 0.06 0.05 99 1018.4
20221206095837 39 338 1.0 3.0 0.00 0.06 0.05 99 1018.4
20221206094817 39 293 2.0 4.0 0.00 0.06 0.05 99 1018.4
20221206093817 39 315 2.0 4.0 0.00 0.07 0.05 99 1018.4
20221206092817 39 293 2.0 5.0 0.00 0.07 0.05 99 1018.3
20221206091817 39 293 2.0 4.0 0.00 0.07 0.05 99 1018.3
20221206090817 38 293 2.0 4.0 0.00 0.08 0.05 99 1018.3
20221206085817 38 270 4.0 7.0 0.00 0.08 0.05 99 1018.3
20221206084817 38 293 2.0 4.0 0.00 0.08 0.05 99 1018.3
20221206083837 38 270 1.0 3.0 0.00 0.08 0.05 99 1018.3
20221206082817 38 270 1.0 2.0 0.00 0.09 0.05 99 1018.3
20221206081817 38 270 2.0 3.0 0.01 0.09 0.05 99 1018.2
20221206080817 38 270 1.0 2.0 0.01 0.10 0.05 99 1018.2
20221206075817 37 293 2.0 3.0 0.01 0.10 0.05 99 1018.2
20221206074817 37 270 2.0 4.0 0.01 0.10 0.05 99 1018.2
20221206073837 37 270 2.0 3.0 0.01 0.10 0.05 99 1018.1
20221206072817 37 293 4.0 5.0 0.01 0.11 0.05 99 1018.1
20221206071817 37 270 1.0 2.0 0.00 0.10 0.04 99 1018.0
20221206070817 37 270 3.0 6.0 0.00 0.11 0.04 99 1018.0
20221206065837 36 293 4.0 6.0 0.00 0.11 0.04 99 1018.0
20221206064817 36 270 4.0 5.0 0.00 0.12 0.04 99 1018.0
20221206063817 36 293 4.0 6.0 0.00 0.12 0.04 99 1017.9
20221206062817 36 270 3.0 5.0 0.00 0.13 0.04 99 1017.8
20221206061817 36 293 3.0 5.0 0.00 0.13 0.04 99 1017.8
20221206060817 36 270 3.0 5.0 0.00 0.13 0.04 99 1017.8
20221206055817 36 270 2.0 3.0 0.01 0.13 0.04 99 1017.9
20221206054817 36 270 4.0 6.0 0.01 0.13 0.04 99 1017.9
20221206053817 35 270 5.0 6.0 0.01 0.13 0.04 99 1017.9
20221206052817 35 270 3.0 4.0 0.02 0.13 0.04 99 1018.0
20221206051817 35 270 2.0 3.0 0.02 0.13 0.04 99 1017.9
20221206050837 35 270 3.0 5.0 0.02 0.13 0.04 99 1018.1
20221206045815 35 270 3.0 4.0 0.01 0.13 0.03 99 1018.1
20221206044817 35 270 4.0 5.0 0.01 0.13 0.03 99 1018.1
20221206043837 35 270 3.0 4.0 0.01 0.13 0.03 99 1018.2
20221206042817 35 270 3.0 5.0 0.01 0.12 0.02 99 1018.3
20221206041817 35 0.0 1.0 0.01 0.12 0.02 99 1018.4
20221206040817 35 270 3.0 4.0 0.01 0.12 0.02 99 1018.3
20221206035817 35 270 3.0 4.0 0.01 0.13 0.02 99 1018.4
20221206034815 35 270 3.0 4.0 0.01 0.13 0.02 99 1018.5
20221206033817 35 270 3.0 5.0 0.01 0.13 0.02 99 1018.5
20221206032817 35 293 3.0 4.0 0.00 0.12 0.02 99 1018.5
20221206031817 35 270 3.0 6.0 0.01 0.12 0.02 99 1018.5
20221206030817 35 315 2.0 4.0 0.01 0.12 0.02 99 1018.5
20221206025817 34 270 1.0 2.0 0.01 0.12 0.02 99 1018.6
20221206024922 34 293 3.0 5.0 0.01 0.12 0.02 99 1018.6
20221206023817 34 270 3.0 5.0 0.01 0.12 0.02 98 1018.7
20221206022817 34 270 4.0 5.0 0.01 0.13 0.02 98 1018.8
20221206021817 34 270 2.0 3.0 0.01 0.12 0.01 98 1018.8
20221206020817 34 293 3.0 4.0 0.01 0.12 0.01 98 1019.0
20221206015817 35 293 3.0 5.0 0.01 0.12 0.01 98 1019.0
20221206014817 35 270 2.0 3.0 0.01 0.12 0.01 99 1019.0
20221206013837 35 270 1.0 4.0 0.01 0.12 0.01 99 1019.1
20221206012837 35 270 3.0 4.0 0.01 0.12 0.01 99 1019.1
20221206011917 35 248 2.0 2.0 0.00 0.11 0.00 99 1019.2
20221206010817 35 270 3.0 4.0 0.00 0.11 0.00 99 1019.3
20221206005817 35 293 2.0 4.0 0.00 0.11 0.00 99 1019.2
20221206004816 35 248 2.0 4.0 0.00 0.11 0.00 99 1019.3
20221206003817 35 270 3.0 5.0 0.00 0.11 0.00 99 1019.3
20221206002817 35 270 2.0 4.0 0.00 0.11 0.00 99 1019.3
20221206001817 35 270 4.0 5.0 0.00 0.11 0.00 99 1019.3
20221206000817 35 270 2.0 3.0 0.00 0.11 0.00 99 1019.4
20221205235817 35 293 2.0 2.0 0.00 0.11 0.00 99 1019.4
20221205234816 35 293 1.0 3.0 0.00 0.11 0.00 99 1019.4
20221205233817 35 270 1.0 1.0 0.00 0.11 0.00 99 1019.4
20221205232817 35 293 1.0 1.0 0.00 0.11 0.00 99 1019.4
20221205231817 35 293 2.0 4.0 0.00 0.11 0.00 99 1019.5
20221205230817 35 270 2.0 2.0 0.00 0.11 0.00 99 1019.6
20221205225815 35 0.0 1.0 0.00 0.11 0.11 99 1019.6
20221205224815 35 270 1.0 2.0 0.00 0.11 0.11 99 1019.6
20221205223815 35 270 2.0 3.0 0.00 0.11 0.11 99 1019.8
20221205222815 35 270 1.0 2.0 0.00 0.11 0.11 99 1019.9
20221205221815 35 270 3.0 4.0 0.00 0.11 0.11 99 1019.8
20221205220815 35 270 2.0 4.0 0.00 0.11 0.11 99 1019.9
20221205215815 35 0.0 1.0 0.00 0.11 0.11 99 1019.9
20221205214815 35 270 3.0 4.0 0.00 0.11 0.11 98 1020.0
20221205213815 35 293 2.0 4.0 0.00 0.11 0.11 99 1020.0
20221205212815 35 270 1.0 3.0 0.00 0.11 0.11 98 1020.0
20221205211815 35 270 1.0 2.0 0.00 0.11 0.11 99 1019.9
20221205210815 35 315 1.0 3.0 0.00 0.11 0.11 99 1020.0
20221205205815 36 270 2.0 3.0 0.00 0.11 0.11 98 1020.0
20221205204815 36 293 2.0 3.0 0.00 0.11 0.11 99 1020.1
20221205203815 36 270 3.0 3.0 0.00 0.11 0.11 99 1020.1
20221205202816 36 293 1.0 3.0 0.00 0.11 0.11 99 1020.2
20221205201815 36 0.0 1.0 0.00 0.11 0.11 99 1020.1
20221205200815 36 270 1.0 2.0 0.00 0.11 0.11 99 1020.2
20221205195815 36 270 1.0 1.0 0.00 0.11 0.11 99 1020.2
20221205194815 36 270 2.0 3.0 0.00 0.11 0.11 98 1020.2
20221205193815 36 293 1.0 2.0 0.00 0.11 0.11 98 1020.2
20221205192815 36 270 2.0 3.0 0.00 0.11 0.11 98 1020.2
20221205191815 36 270 2.0 3.0 0.00 0.11 0.11 98 1020.2
20221205190816 36 270 1.0 2.0 0.00 0.11 0.11 98 1020.1
20221205185815 36 270 1.0 2.0 0.00 0.11 0.11 98 1020.1
20221205184815 36 293 2.0 3.0 0.00 0.11 0.11 98 1020.1
20221205183815 36 293 1.0 2.0 0.00 0.11 0.11 98 1019.9
20221205182815 36 270 1.0 2.0 0.00 0.11 0.11 98 1019.9
20221205181815 36 0.0 0.0 0.00 0.11 0.11 98 1019.9
20221205180835 36 270 2.0 2.0 0.00 0.12 0.11 98 1019.8
20221205175815 36 270 2.0 2.0 0.00 0.12 0.11 98 1019.8
20221205174815 36 0.0 1.0 0.00 0.12 0.11 98 1019.8
20221205173815 36 270 1.0 1.0 0.00 0.12 0.11 98 1019.7
20221205172815 36 248 1.0 2.0 0.00 0.12 0.11 98 1019.7
20221205171815 36 225 1.0 1.0 0.00 0.12 0.11 98 1019.7
20221205170815 36 248 1.0 1.0 0.00 0.12 0.11 98 1019.8
20221205165815 36 225 1.0 1.0 0.00 0.12 0.11 98 1019.7
20221205164815 36 135 1.0 1.0 0.00 0.12 0.11 98 1019.8
20221205163815 36 0.0 0.0 0.00 0.12 0.11 98 1019.7
20221205162855 36 0.0 0.0 0.00 0.12 0.11 98 1019.6
20221205161815 36 0.0 0.0 0.00 0.12 0.11 98 1019.5
20221205160815 36 0.0 0.0 0.00 0.12 0.11 98 1019.6
20221205155815 36 0.0 0.0 0.00 0.12 0.11 98 1019.6
20221205154815 36 0.0 0.0 0.00 0.12 0.11 98 1019.6
20221205153815 36 0.0 0.0 0.00 0.12 0.11 98 1019.5
20221205152815 36 0.0 1.0 0.00 0.12 0.11 98 1019.5
20221205151815 36 0.0 0.0 0.00 0.12 0.11 98 1019.4
20221205150815 36 0.0 1.0 0.00 0.12 0.11 98 1019.3
20221205145815 36 0.0 0.0 0.00 0.12 0.11 98 1019.3
20221205144835 36 0.0 0.0 0.00 0.12 0.11 98 1019.2
20221205143815 36 0.0 1.0 0.00 0.12 0.11 98 1019.3
20221205142815 36 0.0 1.0 0.00 0.12 0.11 98 1019.3
20221205141815 36 0.0 0.0 0.00 0.12 0.11 98 1019.4
20221205140815 36 0.0 1.0 0.00 0.12 0.11 98 1019.3
20221205135815 36 0.0 1.0 0.00 0.12 0.11 98 1019.2
20221205134815 36 90 1.0 1.0 0.00 0.12 0.11 98 1019.3
20221205133815 36 0.0 1.0 0.00 0.12 0.11 98 1019.2
20221205132815 36 0.0 1.0 0.00 0.12 0.11 98 1019.3
20221205131815 36 0.0 1.0 0.00 0.12 0.11 98 1019.4
20221205130815 36 0.0 0.0 0.00 0.12 0.11 98 1019.3
20221205125835 36 0.0 1.0 0.00 0.12 0.11 98 1019.2
20221205124835 36 0.0 0.0 0.00 0.12 0.11 98 1019.3
20221205123815 36 113 1.0 2.0 0.00 0.12 0.11 98 1019.5
20221205122815 36 0.0 0.0 0.00 0.12 0.11 98 1019.5
20221205121815 36 68 1.0 1.0 0.00 0.12 0.11 98 1019.6
20221205120815 36 0.0 1.0 0.01 0.12 0.11 98 1019.5
20221205115815 36 0.0 0.0 0.01 0.12 0.11 98 1019.5
20221205114815 36 0.0 0.0 0.01 0.12 0.11 98 1019.6
20221205113815 36 0.0 0.0 0.01 0.12 0.11 98 1019.6
20221205112815 36 0.0 1.0 0.01 0.12 0.11 98 1019.6